Weather History for KMMK - October, 2012

Change the Weather History Date:

Saturday, October 6, 2012

  Actual Average (KHVN) Record (KHVN)
Temperature  
Mean Temperature 60 °F -  
Max Temperature 78 °F 64 °F 89 °F (1990)
Min Temperature 46 °F 47 °F 21 °F (2005)
Degree Days  
Heating Degree Days 4    
Growing Degree Days 10 (Base 50)    
Moisture  
Dew Point 55 °F    
Average Humidity 87    
Maximum Humidity 100    
Minimum Humidity 56    
Precipitation  
Precipitation 0.00 in - - ()
Sea Level Pressure  
Sea Level Pressure 29.87 in    
Wind  
Wind Speed 2 mph (SSW)    
Max Wind Speed 17 mph    
Max Gust Speed 28 mph    
Visibility 5 miles    
Events Fog    
Averages and records for this station are not official NWS values.
T = Trace of Precipitation, MM = Missing Value Source: NWS Daily Summary

Daily Weather History Graph

Daily Weather History Graph

Search for Another Location

Airport or City:

Trip Planner

Search our weather history database for the weather conditions in past years. The results will help you decide how hot, cold, wet, or windy it might be!

Date:

Astronomy

Oct. 06, 2012 Rise Set
Actual Time 6:53 AM EDT 6:23 PM EDT
Civil Twilight 6:26 AM EDT 6:51 PM EDT
Nautical Twilight 5:54 AM EDT 7:23 PM EDT
Astronomical Twilight 5:21 AM EDT 7:55 PM EDT
Moon 10:33 PM EDT (10/6) 12:49 PM EDT (10/6)
Length of Visible Light 12h 25m
Length of Day
11h 30m
Waning Gibbous, 65% of the Moon is Illuminated
Oct 6
Waning Gibbous
Oct 8
Last Quarter
Oct 15
New
Oct 21
First Quarter
Oct 29
Full

Hourly Weather History & Observations

Time (EDT) Temp. Dew Point Humidity Pressure Visibility Wind Dir Wind Speed Gust Speed Precip Events Conditions
12:17 AM 57.2 °F 55.4 °F 94% 29.92 in 3.0 mi Calm Calm - N/A   Scattered Clouds
12:25 AM 57.2 °F 55.4 °F 94% 29.92 in 2.5 mi Calm Calm - N/A   Partly Cloudy
12:34 AM 57.2 °F 55.4 °F 94% 29.92 in 5.0 mi Calm Calm - N/A   Clear
12:53 AM 57.0 °F 55.0 °F 93% 29.91 in 5.0 mi Calm Calm - N/A   Clear
12:58 AM 55.4 °F 55.4 °F 100% 29.92 in 1.0 mi Calm Calm - N/A   Mist
1:05 AM 55.4 °F 55.4 °F 100% 29.92 in 0.5 mi Calm Calm - N/A Fog Fog
1:14 AM 55.4 °F 55.4 °F 100% 29.92 in 0.8 mi Calm Calm - N/A   Mist
1:35 AM 57.2 °F 55.4 °F 94% 29.91 in 0.2 mi Calm Calm - N/A Fog Fog
1:46 AM 55.4 °F 55.4 °F 100% 29.91 in 0.5 mi Calm Calm - N/A Fog Fog
1:53 AM 55.9 °F 55.0 °F 97% 29.91 in 0.5 mi Calm Calm - N/A Fog Fog
2:07 AM 55.4 °F 55.4 °F 100% 29.90 in 1.2 mi Calm Calm - N/A   Mostly Cloudy
2:15 AM 55.4 °F 53.6 °F 94% 29.90 in 1.5 mi Calm Calm - N/A   Mostly Cloudy
2:28 AM 55.4 °F 53.6 °F 94% 29.89 in 0.5 mi Calm Calm - N/A Fog Fog
2:53 AM 55.0 °F 54.0 °F 96% 29.88 in 2.5 mi Calm Calm - N/A   Mostly Cloudy
3:02 AM 55.4 °F 53.6 °F 94% 29.88 in 3.0 mi Calm Calm - N/A   Scattered Clouds
3:31 AM 55.4 °F 53.6 °F 94% 29.88 in 2.0 mi Calm Calm - N/A   Mostly Cloudy
3:38 AM 55.4 °F 53.6 °F 94% 29.88 in 1.0 mi Calm Calm - N/A   Mist
3:53 AM 54.0 °F 53.1 °F 97% 29.88 in 0.5 mi Calm Calm - N/A Fog Fog
4:03 AM 53.6 °F 53.6 °F 100% 29.88 in 2.5 mi Calm Calm - N/A   Overcast
4:15 AM 53.6 °F 53.6 °F 100% 29.88 in 0.8 mi Calm Calm - N/A   Mist
4:29 AM 53.6 °F 53.6 °F 100% 29.88 in 0.2 mi Calm Calm - N/A Fog Fog
4:53 AM 55.0 °F 54.0 °F 96% 29.86 in 0.2 mi Calm Calm - N/A Fog Fog
5:53 AM 55.9 °F 55.0 °F 97% 29.86 in 0.2 mi Calm Calm - N/A Fog Fog
6:53 AM 57.9 °F 57.0 °F 97% 29.86 in 0.2 mi Calm Calm - N/A Fog Fog
7:53 AM 59.0 °F 59.0 °F 100% 29.86 in 0.2 mi Calm Calm - N/A Fog Fog
8:13 AM 59.0 °F 57.2 °F 94% 29.85 in 0.5 mi SSE 4.6 mph - N/A Fog Fog
8:20 AM 60.8 °F 60.8 °F 100% 29.85 in 1.2 mi SSE 5.8 mph - N/A   Scattered Clouds
8:38 AM 62.6 °F 60.8 °F 94% 29.85 in 2.0 mi SSE 4.6 mph - N/A   Clear
8:53 AM 62.1 °F 61.0 °F 96% 29.85 in 3.0 mi SSE 4.6 mph - N/A   Clear
9:53 AM 68.0 °F 61.0 °F 78% 29.83 in 8.0 mi South 9.2 mph - N/A   Clear
10:53 AM 73.0 °F 61.0 °F 66% 29.81 in 10.0 mi South 10.4 mph - N/A   Clear
11:53 AM 75.0 °F 59.0 °F 57% 29.79 in 10.0 mi SSW 9.2 mph 20.7 mph N/A   Clear
12:53 PM 75.9 °F 59.0 °F 56% 29.76 in 10.0 mi South 8.1 mph 25.3 mph N/A   Clear
1:53 PM 75.9 °F 60.1 °F 58% 29.74 in 10.0 mi South 11.5 mph 19.6 mph N/A   Partly Cloudy
2:53 PM 75.0 °F 59.0 °F 57% 29.74 in 10.0 mi SW 6.9 mph - N/A   Overcast
3:53 PM 73.0 °F 60.1 °F 64% 29.75 in 10.0 mi SSW 5.8 mph - N/A   Overcast
4:53 PM 71.1 °F 57.9 °F 63% 29.76 in 10.0 mi WNW 6.9 mph - N/A   Overcast
5:35 PM 62.6 °F 51.8 °F 68% 29.82 in 10.0 mi NW 17.3 mph 27.6 mph N/A   Overcast
5:53 PM 61.0 °F 51.1 °F 70% 29.84 in 10.0 mi NNW 12.7 mph 21.9 mph N/A   Overcast
6:08 PM 60.8 °F 51.8 °F 72% 29.85 in 10.0 mi NNW 12.7 mph - N/A   Overcast
6:19 PM 60.8 °F 50.0 °F 68% 29.85 in 10.0 mi Variable 6.9 mph - N/A   Overcast
7:53 PM 57.0 °F 48.0 °F 72% 29.89 in 10.0 mi Calm Calm - N/A   Clear
8:53 PM 53.1 °F 46.9 °F 80% 29.93 in 10.0 mi WNW 3.5 mph - N/A   Clear
9:53 PM 51.1 °F 46.0 °F 83% 29.95 in 10.0 mi Calm Calm - N/A   Clear
10:53 PM 46.9 °F 45.0 °F 93% 29.97 in 10.0 mi Calm Calm - N/A   Clear
11:53 PM 46.9 °F 44.1 °F 90% 29.98 in 10.0 mi Calm Calm - N/A   Clear